Time,TemperatureF,DewpointF,PressureIn,WindDirection,WindDirectionDegrees,WindSpeedMPH,WindSpeedGustMPH,Humidity,HourlyPrecipIn,Conditions,Clouds,dailyrainin,SoftwareType,DateUTC
2013-01-07 00:00:00,41.5,41.2,30.09,NW,315,0.0,0.0,99,0.00,,---,0.00,VWS V14.01,2013-01-07 08:00:00,
2013-01-07 00:30:00,40.5,40.2,30.11,NW,315,0.0,0.0,99,0.00,,---,0.00,VWS V14.01,2013-01-07 08:30:00,
2013-01-07 01:00:00,40.2,39.9,30.10,NW,315,0.0,0.0,99,0.02,,---,0.02,VWS V14.01,2013-01-07 09:00:00,
2013-01-07 01:30:00,39.9,39.9,30.10,NW,315,0.0,0.0,100,0.02,,---,0.02,VWS V14.01,2013-01-07 09:30:00,
2013-01-07 02:00:00,39.5,39.5,30.10,NW,315,0.0,0.0,100,0.02,,---,0.02,VWS V14.01,2013-01-07 10:00:00,
2013-01-07 02:30:00,39.2,39.2,30.11,NW,315,0.0,0.0,100,0.00,,---,0.02,VWS V14.01,2013-01-07 10:30:00,
2013-01-07 03:00:00,39.2,39.2,30.11,NW,315,0.0,0.0,100,0.00,,---,0.02,VWS V14.01,2013-01-07 11:00:00,
2013-01-07 03:30:00,39.6,39.6,30.11,NW,315,0.0,0.0,100,0.00,,---,0.02,VWS V14.01,2013-01-07 11:30:00,
2013-01-07 04:00:00,39.5,39.5,30.12,NW,315,0.0,0.0,100,0.00,,---,0.02,VWS V14.01,2013-01-07 12:00:00,
2013-01-07 04:30:00,40.6,40.6,30.12,NW,315,0.0,0.0,100,0.00,,---,0.02,VWS V14.01,2013-01-07 12:30:00,
2013-01-07 05:00:00,40.1,40.1,30.12,NW,315,0.0,0.0,100,0.00,,---,0.02,VWS V14.01,2013-01-07 13:00:00,
2013-01-07 05:30:00,40.3,40.3,30.12,NW,315,0.0,0.0,100,0.00,,---,0.02,VWS V14.01,2013-01-07 13:30:00,
2013-01-07 06:00:00,38.3,38.3,30.14,NW,315,0.0,0.0,100,0.00,,---,0.02,VWS V14.01,2013-01-07 14:00:00,
2013-01-07 06:30:00,40.1,40.1,30.12,NW,315,0.0,0.0,100,0.00,,---,0.02,VWS V14.01,2013-01-07 14:30:00,
2013-01-07 07:00:00,39.5,39.5,30.13,NW,315,0.0,0.0,100,0.00,,---,0.02,VWS V14.01,2013-01-07 15:00:00,
2013-01-07 07:30:00,39.5,39.5,30.13,NW,315,0.0,0.0,100,0.00,,---,0.02,VWS V14.01,2013-01-07 15:30:00,
2013-01-07 08:00:00,38.6,38.6,30.14,NW,315,0.0,0.0,100,0.00,,---,0.02,VWS V14.01,2013-01-07 16:00:00,
2013-01-07 08:30:00,38.8,38.8,30.15,NW,315,0.0,0.0,100,0.00,,---,0.02,VWS V14.01,2013-01-07 16:30:00,
2013-01-07 09:00:00,39.8,39.8,30.15,NW,315,0.0,0.0,100,0.00,,---,0.02,VWS V14.01,2013-01-07 17:00:00,
2013-01-07 09:30:00,40.8,40.8,30.16,NW,315,0.0,0.0,100,0.00,,---,0.02,VWS V14.01,2013-01-07 17:30:00,
2013-01-07 10:00:00,42.9,42.9,30.15,NW,315,0.0,0.0,100,0.00,,---,0.02,VWS V14.01,2013-01-07 18:00:00,
2013-01-07 10:30:00,44.9,44.9,30.17,NW,315,0.0,0.0,100,0.00,,---,0.02,VWS V14.01,2013-01-07 18:30:00,
2013-01-07 11:00:00,47.1,47.1,30.18,NW,315,0.0,0.0,100,0.00,,---,0.02,VWS V14.01,2013-01-07 19:00:00,
2013-01-07 11:30:00,49.5,49.5,30.18,NW,315,0.0,0.0,100,0.00,,---,0.02,VWS V14.01,2013-01-07 19:30:00,
2013-01-07 12:00:00,52.0,52.0,30.18,NW,315,0.0,0.0,100,0.00,,---,0.02,VWS V14.01,2013-01-07 20:00:00,
2013-01-07 12:30:00,54.8,51.6,30.15,NW,315,0.0,0.0,89,0.02,,---,0.04,VWS V14.01,2013-01-07 20:30:00,
2013-01-07 13:00:00,58.0,47.5,30.12,NW,315,0.0,0.0,68,0.02,,---,0.04,VWS V14.01,2013-01-07 21:00:00,
2013-01-07 13:30:00,57.6,46.3,30.12,North,0,0.0,3.0,66,0.02,,---,0.04,VWS V14.01,2013-01-07 21:30:00,
2013-01-07 14:00:00,58.7,47.8,30.11,NNW,338,0.0,6.0,67,0.00,,---,0.04,VWS V14.01,2013-01-07 22:00:00,
2013-01-07 14:30:00,57.6,46.7,30.11,North,0,0.0,7.0,67,0.00,,---,0.04,VWS V14.01,2013-01-07 22:30:00,
2013-01-07 15:00:00,58.0,45.9,30.10,North,0,0.0,6.0,64,0.00,,---,0.04,VWS V14.01,2013-01-07 23:00:00,
2013-01-07 15:30:00,59.0,47.7,30.10,NW,315,0.0,3.0,66,0.00,,---,0.04,VWS V14.01,2013-01-07 23:30:00,
2013-01-07 16:00:00,59.8,47.6,30.09,NW,315,0.0,2.0,64,0.00,,---,0.04,VWS V14.01,2013-01-08 00:00:00,
2013-01-07 16:30:00,60.7,48.9,30.09,NW,315,0.0,0.0,65,0.00,,---,0.04,VWS V14.01,2013-01-08 00:30:00,
2013-01-07 17:00:00,59.2,48.3,30.08,NW,315,0.0,0.0,67,0.00,,---,0.04,VWS V14.01,2013-01-08 01:00:00,
2013-01-07 17:30:00,57.6,48.7,30.08,NW,315,0.0,0.0,72,0.00,,---,0.04,VWS V14.01,2013-01-08 01:30:00,
2013-01-07 18:00:00,56.3,49.2,30.08,NW,315,0.0,0.0,77,0.00,,---,0.04,VWS V14.01,2013-01-08 02:00:00,
2013-01-07 18:30:00,54.8,49.1,30.09,NW,315,0.0,0.0,81,0.00,,---,0.04,VWS V14.01,2013-01-08 02:30:00,
2013-01-07 19:00:00,53.3,49.5,30.09,NW,315,0.0,0.0,87,0.00,,---,0.04,VWS V14.01,2013-01-08 03:00:00,
2013-01-07 19:30:00,52.2,49.4,30.08,NW,315,0.0,0.0,90,0.00,,---,0.04,VWS V14.01,2013-01-08 03:30:00,
2013-01-07 20:00:00,51.0,48.8,30.08,NW,315,0.0,0.0,92,0.00,,---,0.04,VWS V14.01,2013-01-08 04:00:00,
2013-01-07 20:30:00,50.4,48.7,30.08,NW,315,0.0,0.0,94,0.00,,---,0.04,VWS V14.01,2013-01-08 04:30:00,
2013-01-07 21:00:00,49.5,48.1,30.09,NW,315,0.0,0.0,95,0.00,,---,0.04,VWS V14.01,2013-01-08 05:00:00,
2013-01-07 21:30:00,48.5,47.1,30.09,NW,315,0.0,0.0,95,0.00,,---,0.04,VWS V14.01,2013-01-08 05:30:00,
2013-01-07 22:00:00,47.9,47.1,30.10,NW,315,0.0,0.0,97,0.00,,---,0.04,VWS V14.01,2013-01-08 06:00:00,
2013-01-07 22:30:00,47.1,46.3,30.10,NW,315,0.0,0.0,97,0.00,,---,0.04,VWS V14.01,2013-01-08 06:30:00,
2013-01-07 23:00:00,46.4,45.6,30.10,NW,315,0.0,0.0,97,0.00,,---,0.04,VWS V14.01,2013-01-08 07:00:00,
2013-01-07 23:30:00,46.1,45.6,30.09,NW,315,0.0,0.0,98,0.00,,---,0.04,VWS V14.01,2013-01-08 07:30:00,